Regional Weather Roundup
Issued by NWS

Home | Current Version | Previous Version | Graphics & Text | Print | Product List | Glossary On
Versions: 1 2 3 4 5 6 7 8 9 10 11 12 13 14 15 16 17 18 19 20 21 22 23 24 25 26 27
000
ASUS45 KCYS 260110
RWRWY

WYOMING REGIONAL WEATHER ROUNDUP
NATIONAL WEATHER SERVICE CHEYENNE WY
700 PM MDT TUE APR 25 2017

NOTE:  "FAIR" INDICATES FEW OR NO CLOUDS BELOW 12,000 FEET
WITH NO SIGNIFICANT WEATHER AND/OR OBSTRUCTIONS TO VISIBILITY.

WYZ001-260200-
YELLOWSTONE NATIONAL PARK

CITY           SKY/WX    TMP DP  RH WIND       PRES   REMARKS
LK YELLOWSTONE   N/A     32  28  85 CALM      29.85R
W YELLOWSTONE  NOT AVBL

$$
WYZ002>013-054>058-071-098>099-260200-
NORTHERN WYOMING

CITY           SKY/WX    TMP DP  RH WIND       PRES   REMARKS
JACKSON        PTSUNNY   39  36  87 N12       29.83R WCI  32
CODY           FAIR      40  31  70 NE9       29.82R WCI  34
GREYBULL       FAIR      48  29  47 N15       29.77R
WORLAND        FAIR      49  34  56 N9        29.77S
SHERIDAN       CLOUDY    34  29  82 NE3       29.87R
BUFFALO        NOT AVBL
GILLETTE       LGT SNOW  28  28 100 N12       29.85R WCI  18
HULETT         CLOUDY    27  25  93 N3        29.86R
NEWCASTLE      FLURRIES  30  25  80 N20G25    29.80R WCI  18

$$
WYZ014>020-022>026-101>103-260200-
CENTRAL WYOMING

CITY           SKY/WX    TMP DP  RH WIND       PRES   REMARKS
BIG PINEY      PTSUNNY   45  27  49 NW20      29.81R
PINEDALE       CLOUDY    41  32  70 NW21G26   29.82R
DUBOIS         CLOUDY    37  25  60 W3        29.79R
LANDER         FAIR      43  27  53 N6        29.81R
RIVERTON       FAIR      44  28  53 NE10      29.81R
CASPER         LGT SNOW  30  26  85 N6        29.85R FOG     WCI  24
DOUGLAS        CLOUDY    31  25  78 NW14      29.83S WCI  21

$$
WYZ021-027>030-104>119-260200-
SOUTHERN WYOMING

CITY           SKY/WX    TMP DP  RH WIND       PRES   REMARKS
EVANSTON       CLOUDY    38  28  67 W15G28    29.89R WCI  29
KEMMERER         N/A     37  32  81 W17G29    29.86R WCI  28
FORT BRIDGER   CLOUDY    41  30  64 NW18G28   29.89R
ROCK SPRINGS   FAIR      38  33  82 SW6       29.83R WCI  33
DIXON            N/A     41  29  61 N8        29.81R
RAWLINS        FAIR      33  25  72 E7        29.81R WCI  27
SARATOGA       MOCLDY    34  27  75 N8G17     29.82R WCI  27
LARAMIE        FAIR      32  22  66 NW22G30   29.75R WCI  19
CHEYENNE       FAIR      33  24  69 N24G33    29.72R WCI  20
TORRINGTON     LGT SNOW  34  31  88 NE22      29.76R FOG     WCI  22
PINE BLUFFS    FAIR      36  28  75 N23G29    29.74R WCI  24

$$




USA.gov is the U.S. government's official web portal to all federal, state and local government web resources and services.